Terug naar catalogus

FENGYUN 1C DEB

LostSSO
NORAD 32213·DEBRIS·🇨🇳 China

Gelanceerd May 10, 1999 vanaf Taiyuan Satellite Launch Center

Loading…

Volgende Passages (komende 24 uur)

TLE

VerouderdSource: Space-Track

Epoch: Aug 25, 2014, 06:43 UTC

1 32213U 99025CVK 14237.28037211  .00000355  00000-0  24783-3 0  9997
2 32213  99.2064 248.1045 0181517  28.4296 332.6626 13.97395558361004

Volg FENGYUN 1C DEB in realtime met AllMySat

Download on the App Store